CW3319 Weather Reports


time (UTC)temp
C
wind
direction
speed
KPH
gust
KPH
rain 1hr
cm
rain 24hr
cm
rain mn
cm
humidity
%
barometer
mb
20260507105902 1 236 0.0 0.0 0.00 0.00 0.00 81 1012.5
20260507104902 1 236 0.0 0.0 0.00 0.00 0.00 81 1012.5
20260507103902 1 236 0.0 0.0 0.00 0.00 0.00 80 1012.5
20260507102902 1 236 0.0 0.0 0.00 0.00 0.00 80 1012.5
20260507101903 1 236 0.0 0.0 0.00 0.00 0.00 79 1012.5
20260507100932 1 236 0.0 0.0 0.00 0.00 0.00 79 1012.5
20260507095902 1 236 0.0 0.0 0.00 0.00 0.00 78 1012.5
20260507094902 1 236 0.0 0.0 0.00 0.00 0.00 78 1012.6
20260507093902 1 236 0.0 0.0 0.00 0.00 0.00 77 1012.6
20260507092902 1 236 0.0 0.0 0.00 0.00 0.00 76 1012.6
20260507091902 1 236 0.0 0.0 0.00 0.00 0.00 76 1012.6
20260507090902 1 236 0.0 0.0 0.00 0.00 0.00 76 1012.6
20260507085902 1 236 0.0 0.0 0.00 0.00 0.00 76 1012.6
20260507084902 1 236 0.0 0.0 0.00 0.00 0.00 76 1012.6
20260507083902 1 236 0.0 0.0 0.00 0.00 0.00 76 1012.7
20260507082932 1 236 0.0 0.0 0.00 0.00 0.00 76 1012.6
20260507081902 1 236 0.0 0.0 0.00 0.00 0.00 75 1012.6
20260507080902 2 236 0.0 0.0 0.00 0.00 0.00 74 1012.7
20260507075902 2 236 0.0 0.0 0.00 0.00 0.00 74 1012.6
20260507075002 2 236 0.0 0.0 0.00 0.00 0.00 73 1012.7
20260507073932 2 236 0.0 0.0 0.00 0.00 0.00 72 1012.7
20260507072932 2 236 0.0 0.0 0.00 0.00 0.00 72 1012.8
20260507071902 2 236 0.0 0.0 0.00 0.00 0.00 74 1013.0
20260507070902 2 236 0.0 0.0 0.00 0.00 0.00 71 1013.1
20260507065932 2 236 0.0 0.0 0.00 0.00 0.00 71 1013.2
20260507064902 2 236 0.0 0.0 0.00 0.00 0.00 71 1013.2
20260507063902 3 236 0.0 0.0 0.00 0.00 0.00 71 1013.2
20260507062902 3 236 0.0 0.0 0.00 0.00 0.00 71 1013.4
20260507061902 3 236 0.0 0.0 0.00 0.00 0.00 71 1013.4
20260507060932 3 236 0.0 0.0 0.00 0.00 0.00 71 1013.5
20260507055902 3 236 0.0 0.0 0.00 0.00 0.00 71 1013.5
20260507054932 3 236 0.0 0.0 0.00 0.00 0.00 71 1013.5
20260507053902 3 236 0.0 0.0 0.00 0.00 0.00 69 1013.5
20260507052932 3 236 0.0 0.0 0.00 0.00 0.00 70 1013.6
20260507052002 3 236 0.0 0.0 0.00 0.00 0.00 71 1013.6
20260507050932 3 236 0.0 0.0 0.00 0.00 0.00 72 1013.7
20260507045902 3 236 0.0 0.0 0.00 0.00 0.00 72 1013.8
20260507044902 3 236 0.0 0.0 0.00 0.00 0.00 72 1013.7
20260507043902 3 236 0.0 0.0 0.00 0.00 0.00 72 1013.8
20260507042902 3 236 0.0 0.0 0.00 0.00 0.00 72 1014.0
20260507041902 3 236 0.0 0.0 0.00 0.00 0.00 71 1014.0
20260507040932 3 236 0.0 0.0 0.00 0.00 0.00 70 1014.0
20260507035932 3 236 0.0 0.0 0.00 0.00 0.00 69 1014.1
20260507034903 3 236 0.0 0.0 0.00 0.00 0.00 68 1014.1
20260507033901 3 236 0.0 0.0 0.00 0.00 0.00 67 1014.1
20260507032903 3 236 0.0 0.0 0.00 0.00 0.00 68 1014.2
20260507031901 3 236 0.0 0.0 0.00 0.00 0.00 67 1014.2
20260507030902 3 236 0.0 0.0 0.00 0.00 0.00 67 1014.3
20260507025933 3 237 0.0 0.0 0.00 0.00 0.00 66 1014.4
20260507024901 4 237 0.0 0.0 0.00 0.00 0.00 65 1014.3
20260507023902 4 237 0.0 0.0 0.00 0.00 0.00 64 1014.4
20260507022903 5 239 0.0 0.0 0.00 0.00 0.00 64 1014.4
20260507021902 5 264 0.0 0.0 0.00 0.00 0.00 62 1014.3
20260507020902 6 271 0.0 0.0 0.00 0.00 0.00 60 1014.3
20260507015932 6 270 0.0 0.0 0.00 0.00 0.00 58 1014.3
20260507014901 6 274 0.0 0.0 0.00 0.00 0.00 57 1014.2
20260507013903 6 274 0.0 0.0 0.00 0.00 0.00 55 1014.2
20260507012902 6 287 0.0 0.0 0.00 0.00 0.00 55 1014.3
20260507011902 6 277 0.0 0.0 0.00 0.00 0.00 56 1014.3
20260507010902 6 271 0.0 0.0 0.00 0.00 0.00 55 1014.3
20260507005932 6 283 0.0 0.0 0.00 0.00 0.00 54 1014.3
20260507004903 6 267 0.0 0.0 0.00 0.00 0.00 55 1014.2
20260507003902 6 277 0.0 0.0 0.00 0.00 0.00 55 1014.2
20260507002932 6 266 0.0 0.0 0.00 0.00 0.00 54 1014.3
20260507001932 6 266 1.6 3.2 0.00 0.00 0.00 52 1014.4
20260507000902 6 285 3.2 3.2 0.00 0.00 0.00 55 1014.4
20260506235902 6 307 3.2 4.8 0.00 0.00 0.00 54 1014.4
20260506234902 6 292 0.0 1.6 0.00 0.00 0.00 54 1014.4
20260506233902 7 278 1.6 4.8 0.00 0.00 0.00 55 1014.6
20260506232902 7 277 0.0 1.6 0.00 0.00 0.00 53 1014.6
20260506231902 7 269 1.6 4.8 0.00 0.00 0.00 53 1014.6
20260506230902 7 269 1.6 3.2 0.00 0.00 0.00 52 1014.5
20260506225902 7 286 3.2 4.8 0.00 0.00 0.00 54 1014.6
20260506224902 7 274 1.6 1.6 0.00 0.00 0.00 55 1014.7
20260506223902 7 272 3.2 4.8 0.00 0.00 0.00 56 1014.7
20260506222902 6 265 1.6 3.2 0.00 0.00 0.00 54 1014.7
20260506221902 6 260 3.2 6.4 0.00 0.00 0.00 56 1014.8
20260506220902 7 255 4.8 6.4 0.00 0.00 0.00 55 1014.8
20260506215902 6 265 0.0 3.2 0.00 0.00 0.00 55 1014.9
20260506214932 7 277 3.2 4.8 0.00 0.00 0.00 56 1014.9
20260506213902 6 264 1.6 3.2 0.00 0.00 0.00 54 1015.0
20260506212902 6 270 3.2 4.8 0.00 0.00 0.00 54 1015.0
20260506211902 6 279 3.2 6.4 0.00 0.00 0.00 54 1015.0
20260506210902 6 273 4.8 6.4 0.00 0.00 0.00 55 1015.1
20260506205932 6 288 3.2 6.4 0.00 0.00 0.00 55 1015.2
20260506204932 6 308 1.6 3.2 0.00 0.00 0.00 55 1015.2
20260506203902 6 261 4.8 6.4 0.00 0.00 0.00 56 1015.2
20260506202902 6 274 0.0 1.6 0.00 0.00 0.00 53 1015.2
20260506201902 6 275 3.2 4.8 0.00 0.00 0.00 55 1015.2
20260506200932 6 287 3.2 6.4 0.00 0.00 0.00 54 1015.3
20260506194902 6 308 1.6 4.8 0.00 0.00 0.00 53 1015.3
20260506193902 6 282 3.2 4.8 0.00 0.00 0.00 55 1015.3
20260506192902 6 279 3.2 4.8 0.00 0.00 0.00 55 1015.4
20260506192002 6 269 1.6 3.2 0.00 0.00 0.00 54 1015.3
20260506190902 6 293 1.6 4.8 0.00 0.00 0.00 54 1015.4
20260506185902 6 264 3.2 3.2 0.00 0.00 0.00 53 1015.2
20260506184902 6 263 3.2 6.4 0.00 0.00 0.00 55 1015.3
20260506183902 6 287 3.2 6.4 0.00 0.00 0.00 54 1015.4
20260506182902 6 276 3.2 4.8 0.00 0.00 0.00 54 1015.4
20260506181902 6 279 3.2 4.8 0.00 0.00 0.00 55 1015.4
20260506180902 6 298 3.2 6.4 0.00 0.00 0.00 55 1015.4
20260506175902 5 276 3.2 6.4 0.00 0.00 0.00 55 1015.5
20260506174902 5 295 4.8 6.4 0.00 0.00 0.00 56 1015.5
20260506173902 5 286 3.2 4.8 0.00 0.00 0.00 57 1015.5
20260506172901 5 279 3.2 4.8 0.00 0.00 0.00 55 1015.6
20260506171902 5 280 3.2 4.8 0.00 0.00 0.00 56 1015.6
20260506170902 5 267 3.2 4.8 0.00 0.00 0.00 55 1015.8
20260506165902 5 289 3.2 4.8 0.00 0.00 0.00 55 1015.8
20260506164902 5 276 4.8 4.8 0.00 0.00 0.00 56 1015.8
20260506163932 5 276 1.6 6.4 0.00 0.00 0.00 56 1015.8
20260506162902 5 289 3.2 3.2 0.00 0.00 0.00 57 1015.7
20260506161931 5 288 4.8 9.7 0.00 0.00 0.00 58 1015.7
20260506160902 5 282 3.2 4.8 0.00 0.00 0.00 58 1015.8
20260506155902 5 285 1.6 3.2 0.00 0.00 0.00 57 1015.6
20260506154901 5 282 3.2 3.2 0.00 0.00 0.00 56 1015.7
20260506153933 5 286 3.2 4.8 0.00 0.00 0.00 57 1015.5
20260506152901 5 291 1.6 3.2 0.00 0.00 0.00 56 1015.4
20260506151903 5 272 4.8 6.4 0.00 0.00 0.00 56 1015.3
20260506150901 5 279 3.2 6.4 0.00 0.00 0.00 57 1015.4
20260506145902 5 289 1.6 3.2 0.00 0.00 0.00 56 1015.4
20260506144902 5 266 3.2 4.8 0.00 0.00 0.00 57 1015.4
20260506143902 5 296 1.6 3.2 0.00 0.00 0.00 57 1015.4
20260506142902 5 278 1.6 3.2 0.00 0.00 0.00 58 1015.3
20260506141903 5 289 3.2 4.8 0.00 0.00 0.00 59 1015.3
20260506140901 4 275 3.2 4.8 0.00 0.00 0.00 59 1015.4
20260506135902 4 328 1.6 3.2 0.00 0.00 0.00 61 1015.3
20260506134903 4 270 3.2 4.8 0.00 0.00 0.00 63 1015.2
20260506133901 3 289 3.2 4.8 0.00 0.00 0.00 64 1015.2
20260506132932 3 276 1.6 1.6 0.00 0.00 0.00 65 1015.1
20260506131902 3 277 0.0 0.0 0.00 0.00 0.00 66 1015.0
20260506130903 3 298 0.0 0.0 0.00 0.00 0.00 68 1015.0
20260506125901 2 312 1.6 4.8 0.00 0.00 0.00 69 1014.8
20260506124902 2 284 0.0 0.0 0.00 0.00 0.00 71 1014.7
20260506123903 2 283 0.0 1.6 0.00 0.00 0.00 72 1014.6
20260506122901 1 308 0.0 0.0 0.00 0.00 0.00 73 1014.7
20260506121903 1 286 0.0 0.0 0.00 0.00 0.00 73 1014.6
20260506120901 1 325 0.0 0.0 0.00 0.00 0.00 73 1014.4
20260506115901 1 338 0.0 0.0 0.00 0.00 0.00 74 1014.2
20260506114902 1 324 0.0 0.0 0.00 0.00 0.00 74 1014.1
20260506113903 1 324 0.0 0.0 0.00 0.00 0.00 74 1014.0
20260506112901 1 323 0.0 0.0 0.00 0.00 0.00 74 1013.8
20260506111901 1 281 0.0 0.0 0.00 0.00 0.00 75 1013.9
20260506110902 1 281 0.0 0.0 0.00 0.00 0.00 77 1014.0